Back to catalog

CZ-6A DEB

AlivePO
NORAD 60675·DEBRIS·🇨🇳 China

Launched Aug 6, 2024 from Taiyuan Satellite Launch Center

Loading…

Next Passes (next 24 hours)

TLE

FreshSource: Space-Track

Epoch: Sep 14, 2026, 07:52 UTC

1 60675U 24140CC  26257.32782413  .00000119  00000-0  57516-4 0  9996
2 60675  89.0084 267.0985 0081089 286.6271  72.6021 14.10899260108030

Track CZ-6A DEB in real time with AllMySat

Download on the App Store